This demonstration page uses our WeatherBlox Daily Observations layout. Learn more.

Hourly Observations for December 18, 2019

Temp ( °F °C ) Dew Point ( °F °C ) Humidity (%) Winds ( mph kmh ) Pressure ( in mb ) Visibility ( mi km ) Precip ( " mm )
12:15 am 00:15 Clear 23 -4.9 20 -6.8 87 87 WSW 3 6 30.37 1029 10 16.0934 0 0
12:35 am 00:35 Clear 24 -4.7 20 -6.7 86 86 SW 3 6 30.36 1028 10 16.0934 0 0
12:55 am 00:55 Clear 23 -5.1 19 -7 87 87 Calm 30.37 1028 10 16.0934 0 0
1:15 am 01:15 Clear 24 -4.4 20 -6.4 86 86 WSW 5 7 30.36 1028 10 16.0934 0 0
1:35 am 01:35 Clear 25 -3.8 20 -6.4 82 82 W 5 7 30.34 1028 10 16.0934 0 0
1:55 am 01:55 Clear 24 -4.2 20 -6.5 84 84 WSW 3 6 30.35 1028 10 16.0934 0 0
2:15 am 02:15 Clear 24 -4.6 20 -6.9 84 84 W 7 11 30.35 1028 10 16.0934 0 0
2:35 am 02:35 Clear 25 -4 20 -6.5 83 83 W 7 11 30.35 1028 10 16.0934 0 0
2:55 am 02:55 Clear 25 -4 20 -6.5 83 83 W 9 15 30.35 1028 10 16.0934 0 0
3:15 am 03:15 Clear 24 -4.2 20 -6.6 84 84 WSW 6 9 30.35 1028 10 16.0934 0 0
3:35 am 03:35 Clear 24 -4.5 20 -6.7 85 85 WSW 5 7 30.34 1027 10 16.0934 0 0
3:55 am 03:55 Clear 25 -4 20 -6.6 82 82 WSW 6 9 30.33 1027 10 16.0934 0 0
4:15 am 04:15 Clear 23 -4.8 19 -7 85 85 SW 5 7 30.34 1028 10 16.0934 0 0
4:35 am 04:35 Clear 23 -5 19 -7 86 86 SW 6 9 30.33 1027 10 16.0934 0 0
4:55 am 04:55 Clear 23 -5 19 -7 86 86 SW 5 7 30.33 1027 10 16.0934 0 0
5:15 am 05:15 Clear 23 -5.2 19 -7.2 86 86 WSW 3 6 30.34 1027 10 16.0934 0 0
5:35 am 05:35 Clear 23 -5 19 -7.3 84 84 WSW 5 7 30.32 1027 10 16.0934 0 0
5:55 am 05:55 Clear 23 -5 19 -7.3 84 84 SW 3 6 30.31 1027 10 16.0934 0 0
6:15 am 06:15 Clear 23 -5 19 -7.5 83 83 Calm 30.31 1027 10 16.0934 0 0
6:35 am 06:35 Clear 23 -5.2 18 -7.6 83 83 WSW 6 9 30.32 1027 10 16.0934 0 0
6:55 am 06:55 Clear 23 -5 19 -7.3 84 84 SW 6 9 30.31 1027 10 16.0934 0 0
7:15 am 07:15 Clear 23 -5 19 -7.5 83 83 SW 5 7 30.32 1027 10 16.0934 0 0
7:35 am 07:35 Clear 24 -4.6 19 -7.2 82 82 WSW 7 11 30.31 1026 10 16.0934 0 0
7:55 am 07:55 Clear 25 -3.9 19 -7.2 78 78 WSW 7 11 30.3 1026 10 16.0934 0 0
8:15 am 08:15 Sunny 26 -3.6 19 -7.1 77 77 W 9 15 30.3 1026 10 16.0934 0 0
8:35 am 08:35 Sunny 26 -3.5 19 -7.1 76 76 W 9 15 30.3 1026 10 16.0934 0 0
8:55 am 08:55 Sunny 27 -3 19 -7 74 74 WSW 7 11 30.29 1026 10 16.0934 0 0
9:15 am 09:15 Sunny 29 -1.7 21 -6.1 72 72 W 8 13 30.29 1026 10 16.0934 0 0
9:35 am 09:35 Sunny 30 -1 21 -5.9 70 70 W 9 15 30.3 1026 10 16.0934 0 0
9:55 am 09:55 Sunny 32 -0.1 22 -5.3 68 68 SW 7 11 30.27 1025 10 16.0934 0 0
10:15 am 10:15 Sunny 33 0.7 23 -4.8 67 67 SW 7 11 30.26 1025 10 16.0934 0 0
10:35 am 10:35 Sunny 37 2.6 24 -4.5 60 60 SW 10 17 30.23 1024 10 16.0934 0 0
10:55 am 10:55 Sunny 37 2.6 24 -4.2 61 61 SW 9 15 30.23 1024 10 16.0934 0 0
11:15 am 11:15 Sunny 37 2.9 24 -4.5 59 59 WSW 8 13 30.23 1024 10 16.0934 0 0
11:35 am 11:35 Sunny 37 3 24 -4.6 58 58 WSW 7 11 30.22 1023 10 16.0934 0 0
11:55 am 11:55 Sunny 39 4.1 25 -3.8 57 57 WSW 7 11 30.2 1023 10 16.0934 0 0
12:15 pm 12:15 Sunny 41 5 26 -3.6 54 54 SW 9 15 30.18 1022 10 16.0934 0 0
12:35 pm 12:35 Sunny 42 5.5 26 -3.2 54 54 SW 9 15 30.16 1021 10 16.0934 0 0
12:55 pm 12:55 Sunny 42 5.7 27 -2.8 55 55 SW 9 15 30.14 1021 10 16.0934 0 0
1:15 pm 13:15 Sunny 43 6 28 -2.4 55 55 SW 12 19 30.13 1020 10 16.0934 0 0
1:35 pm 13:35 Sunny 44 6.6 28 -2.1 54 54 SW 12 19 30.11 1020 10 16.0934 0 0
1:55 pm 13:55 Sunny 45 7.1 28 -2.3 52 52 SSW 10 17 30.11 1020 10 16.0934 0 0
2:15 pm 14:15 Sunny 47 8.4 29 -1.8 49 49 SW 9 15 30.1 1019 10 16.0934 0 0
2:35 pm 14:35 Sunny 48 8.8 28 -2.1 47 47 SW 8 13 30.08 1019 10 16.0934 0 0
2:55 pm 14:55 Sunny 49 9.5 28 -2.2 44 44 WSW 9 15 30.09 1019 10 16.0934 0 0
3:15 pm 15:15 Sunny 49 9.7 28 -2.3 43 43 WSW 8 13 30.09 1019 10 16.0934 0 0
3:35 pm 15:35 Sunny 49 9.5 28 -2.3 44 44 WSW 8 13 30.09 1019 10 16.0934 0 0
3:55 pm 15:55 Sunny 49 9.2 27 -2.6 44 44 WSW 9 15 30.09 1019 10 16.0934 0 0
4:15 pm 16:15 Sunny 47 8.6 27 -2.6 46 46 SW 6 9 30.1 1019 10 16.0934 0 0
4:35 pm 16:35 Sunny 46 7.7 26 -3.2 46 46 WSW 7 11 30.1 1019 10 16.0934 0 0
4:55 pm 16:55 Sunny 44 6.4 26 -3.5 50 50 WSW 6 9 30.12 1020 10 16.0934 0 0
5:15 pm 17:15 Clear 41 4.8 26 -3.1 57 57 SW 3 6 30.14 1021 10 16.0934 0 0
5:55 pm 17:55 Clear 38 3.4 25 -4 59 59 WSW 3 6 30.15 1021 10 16.0934 0 0
6:15 pm 18:15 Clear 37 2.9 25 -4 61 61 WSW 3 6 30.17 1022 10 16.0934 0 0
6:35 pm 18:35 Clear 36 2 24 -4.4 63 63 WSW 3 6 30.18 1022 10 16.0934 0 0
6:55 pm 18:55 Clear 36 2.3 24 -4.2 63 63 SW 3 6 30.17 1022 10 16.0934 0 0
7:15 pm 19:15 Clear 37 2.8 25 -3.7 63 63 SW 5 7 30.17 1022 10 16.0934 0 0
7:35 pm 19:35 Clear 36 2 24 -4.2 64 64 Calm 30.18 1022 10 16.0934 0 0
7:55 pm 19:55 Clear 34 0.9 24 -4.7 67 67 Calm 30.19 1022 10 16.0934 0 0
8:15 pm 20:15 Clear 29 -1.8 23 -5.1 78 78 W 3 6 30.21 1023 10 16.0934 0 0
8:35 pm 20:35 Clear 31 -0.5 24 -4.4 75 75 Calm 30.19 1022 10 16.0934 0 0
8:55 pm 20:55 Clear 30 -0.9 24 -4.7 76 76 Calm 30.19 1022 10 16.0934 0 0
9:15 pm 21:15 Clear 31 -0.7 24 -4.5 76 76 Calm 30.19 1022 10 16.0934 0 0
9:35 pm 21:35 Clear 30 -1.1 24 -4.5 78 78 SW 3 6 30.19 1022 10 16.0934 0 0
9:55 pm 21:55 Clear 29 -1.4 24 -4.7 79 79 WSW 3 6 30.19 1022 10 16.0934 0 0
10:15 pm 22:15 Clear 29 -1.6 22 -5.4 76 76 Calm 30.18 1022 10 16.0934 0 0
10:35 pm 22:35 Clear 26 -3.2 22 -5.7 83 83 Calm 30.2 1023 10 16.0934 0 0
10:55 pm 22:55 Clear 26 -3.1 21 -5.9 81 81 Calm 30.2 1023 10 16.0934 0 0
11:15 pm 23:15 Clear 26 -3.4 21 -6.1 82 82 Calm 30.2 1023 10 16.0934 0 0
11:35 pm 23:35 Clear 29 -1.8 22 -5.5 76 76 SSW 6 9 30.18 1022 10 16.0934 0 0
11:55 pm 23:55 Clear 26 -3.4 19 -7.3 75 75 SSW 3 6 30.2 1023 10 16.0934 0 0

Powered by AerisWeather